Time,TemperatureF,DewpointF,PressureIn,WindDirection,WindDirectionDegrees,WindSpeedMPH,WindSpeedGustMPH,Humidity,HourlyPrecipIn,Conditions,Clouds,dailyrainin,SoftwareType,DateUTC
2013-08-11 00:01:00,83.0,75.0,30.08,ESE,113,5.0,12.0,77,0.00,,,0.00,,2013-08-11 04:01:00,
2013-08-11 00:12:00,83.0,75.0,30.08,SE,127,3.0,11.0,77,0.00,,,0.00,,2013-08-11 04:12:00,
2013-08-11 00:32:00,83.0,75.0,30.08,ESE,109,4.0,9.0,77,0.00,,,0.00,,2013-08-11 04:32:00,
2013-08-11 00:43:00,83.0,75.0,30.08,ESE,118,1.0,12.0,78,0.00,,,0.00,,2013-08-11 04:43:00,
2013-08-11 01:02:00,83.0,75.0,30.08,ESE,113,2.0,8.0,77,0.00,,,0.00,,2013-08-11 05:02:00,
2013-08-11 01:18:00,83.0,75.0,30.08,SE,136,4.0,11.0,78,0.00,,,0.00,,2013-08-11 05:18:00,
2013-08-11 01:36:00,83.0,76.0,30.08,ESE,115,2.0,9.0,79,0.00,,,0.00,,2013-08-11 05:36:00,
2013-08-11 01:46:00,83.0,76.0,30.08,SE,134,1.0,9.0,79,0.00,,,0.00,,2013-08-11 05:46:00,
2013-08-11 02:04:00,83.0,76.0,30.08,SE,127,4.0,10.0,79,0.00,,,0.00,,2013-08-11 06:04:00,
2013-08-11 02:17:00,83.0,76.0,30.08,ESE,122,2.0,10.0,80,0.00,,,0.00,,2013-08-11 06:17:00,
2013-08-11 02:36:00,83.0,76.0,30.08,SE,128,4.0,9.0,80,0.00,,,0.00,,2013-08-11 06:36:00,
2013-08-11 02:48:00,83.0,76.0,30.07,ESE,109,4.0,10.0,80,0.00,,,0.00,,2013-08-11 06:48:00,
2013-08-11 02:55:00,83.0,76.0,30.07,ESE,109,4.0,10.0,80,0.00,,,0.00,,2013-08-11 06:55:00,
2013-08-11 03:06:00,83.0,76.0,30.07,ESE,119,2.0,9.0,80,0.00,,,0.00,,2013-08-11 07:06:00,
2013-08-11 03:15:00,82.0,75.0,30.07,ESE,121,1.0,8.0,80,0.00,,,0.00,,2013-08-11 07:15:00,
2013-08-11 03:24:00,82.0,75.0,30.07,ESE,121,1.0,8.0,80,0.00,,,0.00,,2013-08-11 07:24:00,
2013-08-11 03:36:00,83.0,76.0,30.07,ESE,121,2.0,11.0,80,0.00,,,0.00,,2013-08-11 07:36:00,
2013-08-11 03:45:00,82.0,76.0,30.07,ESE,122,1.0,10.0,81,0.00,,,0.00,,2013-08-11 07:45:00,
2013-08-11 03:54:00,82.0,76.0,30.07,ESE,122,1.0,10.0,81,0.00,,,0.00,,2013-08-11 07:54:00,
2013-08-11 04:10:00,82.0,75.0,30.07,ESE,120,1.0,9.0,80,0.00,,,0.00,,2013-08-11 08:10:00,
2013-08-11 04:18:00,82.0,76.0,30.06,SE,124,2.0,11.0,81,0.00,,,0.00,,2013-08-11 08:18:00,
2013-08-11 04:26:00,82.0,76.0,30.06,SE,124,2.0,11.0,81,0.00,,,0.00,,2013-08-11 08:26:00,
2013-08-11 04:36:00,82.0,75.0,30.06,SE,132,2.0,7.0,80,0.00,,,0.00,,2013-08-11 08:36:00,
2013-08-11 04:47:00,82.0,76.0,30.06,ESE,113,2.0,8.0,81,0.00,,,0.00,,2013-08-11 08:47:00,
2013-08-11 04:57:00,82.0,76.0,30.06,ESE,113,2.0,8.0,81,0.00,,,0.00,,2013-08-11 08:57:00,
2013-08-11 05:08:00,82.0,76.0,30.06,ESE,121,2.0,10.0,81,0.00,,,0.00,,2013-08-11 09:08:00,
2013-08-11 05:15:00,82.0,76.0,30.06,ESE,118,1.0,9.0,81,0.00,,,0.00,,2013-08-11 09:15:00,
2013-08-11 05:28:00,82.0,76.0,30.06,ESE,118,1.0,9.0,81,0.00,,,0.00,,2013-08-11 09:28:00,
2013-08-11 05:35:00,82.0,76.0,30.06,SE,140,2.0,7.0,81,0.00,,,0.00,,2013-08-11 09:35:00,
2013-08-11 05:43:00,82.0,76.0,30.06,ESE,116,1.0,8.0,82,0.00,,,0.00,,2013-08-11 09:43:00,
2013-08-11 06:05:00,82.0,76.0,30.07,ESE,115,1.0,10.0,81,0.00,,,0.00,,2013-08-11 10:05:00,
2013-08-11 06:15:00,82.0,76.0,30.07,ESE,118,0.0,7.0,81,0.00,,,0.00,,2013-08-11 10:15:00,
2013-08-11 06:28:00,82.0,76.0,30.07,ESE,118,0.0,7.0,81,0.00,,,0.00,,2013-08-11 10:28:00,
2013-08-11 06:35:00,82.0,76.0,30.07,ENE,65,0.0,4.0,81,0.00,,,0.00,,2013-08-11 10:35:00,
2013-08-11 06:55:00,82.0,76.0,30.08,ESE,103,1.0,8.0,81,0.00,,,0.00,,2013-08-11 10:55:00,
2013-08-11 07:06:00,82.0,76.0,30.08,SE,128,3.0,12.0,81,0.00,,,0.00,,2013-08-11 11:06:00,
2013-08-11 07:14:00,82.0,76.0,30.08,East,98,1.0,6.0,81,0.00,,,0.00,,2013-08-11 11:14:00,
2013-08-11 07:24:00,82.0,76.0,30.08,East,98,1.0,6.0,81,0.00,,,0.00,,2013-08-11 11:24:00,
2013-08-11 07:37:00,82.0,76.0,30.08,ESE,110,0.0,4.0,81,0.00,,,0.00,,2013-08-11 11:37:00,
2013-08-11 07:47:00,82.0,76.0,30.09,ESE,117,2.0,7.0,81,0.00,,,0.00,,2013-08-11 11:47:00,
2013-08-11 07:56:00,82.0,76.0,30.09,ESE,117,2.0,7.0,81,0.00,,,0.00,,2013-08-11 11:56:00,
2013-08-11 08:06:00,82.0,75.0,30.09,ESE,121,2.0,7.0,80,0.00,,,0.00,,2013-08-11 12:06:00,
2013-08-11 08:15:00,82.0,75.0,30.09,SE,131,4.0,10.0,80,0.00,,,0.00,,2013-08-11 12:15:00,
2013-08-11 08:36:00,83.0,76.0,30.09,ESE,112,2.0,9.0,80,0.00,,,0.00,,2013-08-11 12:36:00,
2013-08-11 08:45:00,83.0,76.0,30.09,East,101,2.0,8.0,80,0.00,,,0.00,,2013-08-11 12:45:00,
2013-08-11 08:54:00,83.0,76.0,30.09,East,101,2.0,8.0,80,0.00,,,0.00,,2013-08-11 12:54:00,
2013-08-11 09:06:00,83.0,76.0,30.10,NE,49,2.0,8.0,80,0.00,,,0.00,,2013-08-11 13:06:00,
2013-08-11 09:16:00,84.0,76.0,30.10,SE,132,1.0,9.0,78,0.00,,,0.00,,2013-08-11 13:16:00,
2013-08-11 09:25:00,84.0,76.0,30.10,SE,132,1.0,9.0,78,0.00,,,0.00,,2013-08-11 13:25:00,
2013-08-11 09:39:00,84.0,76.0,30.10,ESE,115,2.0,7.0,78,0.00,,,0.00,,2013-08-11 13:39:00,
2013-08-11 09:45:00,85.0,77.0,30.10,SE,127,1.0,10.0,77,0.00,,,0.00,,2013-08-11 13:45:00,
2013-08-11 09:55:00,85.0,77.0,30.10,SE,127,1.0,10.0,77,0.00,,,0.00,,2013-08-11 13:55:00,
2013-08-11 10:05:00,85.0,77.0,30.11,SE,126,2.0,7.0,76,0.00,,,0.00,,2013-08-11 14:05:00,
2013-08-11 10:17:00,85.0,76.0,30.11,SE,136,3.0,9.0,75,0.00,,,0.00,,2013-08-11 14:17:00,
2013-08-11 10:24:00,85.0,76.0,30.11,SE,136,3.0,9.0,75,0.00,,,0.00,,2013-08-11 14:24:00,
2013-08-11 10:34:00,85.0,76.0,30.11,SE,135,1.0,11.0,75,0.00,,,0.00,,2013-08-11 14:34:00,
2013-08-11 10:56:00,86.0,77.0,30.11,SE,126,2.0,8.0,75,0.00,,,0.00,,2013-08-11 14:56:00,
2013-08-11 11:08:00,86.0,76.0,30.11,ESE,103,1.0,9.0,73,0.00,,,0.00,,2013-08-11 15:08:00,
2013-08-11 11:14:00,87.0,77.0,30.11,SE,124,2.0,8.0,73,0.00,,,0.00,,2013-08-11 15:14:00,
2013-08-11 11:24:00,87.0,77.0,30.11,SE,124,2.0,8.0,73,0.00,,,0.00,,2013-08-11 15:24:00,
2013-08-11 11:39:00,87.0,77.0,30.11,SSE,147,1.0,9.0,72,0.00,,,0.00,,2013-08-11 15:39:00,
2013-08-11 11:48:00,87.0,77.0,30.11,SE,140,1.0,12.0,72,0.00,,,0.00,,2013-08-11 15:48:00,
2013-08-11 11:57:00,87.0,77.0,30.11,SE,140,1.0,12.0,72,0.00,,,0.00,,2013-08-11 15:57:00,
2013-08-11 12:09:00,87.0,77.0,30.11,North,11,2.0,10.0,72,0.00,,,0.00,,2013-08-11 16:09:00,
2013-08-11 12:28:00,88.0,78.0,30.11,ESE,103,1.0,11.0,72,0.00,,,0.00,,2013-08-11 16:28:00,
2013-08-11 12:39:00,88.0,78.0,30.11,SE,124,2.0,9.0,72,0.00,,,0.00,,2013-08-11 16:39:00,
2013-08-11 12:46:00,88.0,77.0,30.11,SE,140,4.0,12.0,71,0.00,,,0.00,,2013-08-11 16:46:00,
2013-08-11 12:55:00,88.0,77.0,30.11,SE,140,4.0,12.0,71,0.00,,,0.00,,2013-08-11 16:55:00,
2013-08-11 13:08:00,88.0,77.0,30.11,SSE,152,3.0,13.0,71,0.00,,,0.00,,2013-08-11 17:08:00,
2013-08-11 13:13:00,88.0,77.0,30.11,SE,127,1.0,11.0,71,0.00,,,0.00,,2013-08-11 17:13:00,
2013-08-11 13:25:00,88.0,77.0,30.11,SE,127,1.0,11.0,71,0.00,,,0.00,,2013-08-11 17:25:00,
2013-08-11 13:37:00,88.0,77.0,30.11,SE,131,4.0,11.0,71,0.00,,,0.00,,2013-08-11 17:37:00,
2013-08-11 13:45:00,88.0,77.0,30.10,SE,135,5.0,11.0,71,0.00,,,0.00,,2013-08-11 17:45:00,
2013-08-11 14:06:00,88.0,77.0,30.10,SE,124,4.0,12.0,71,0.00,,,0.00,,2013-08-11 18:06:00,
2013-08-11 14:17:00,89.0,78.0,30.10,ESE,115,3.0,14.0,70,0.00,,,0.00,,2013-08-11 18:17:00,
2013-08-11 14:28:00,89.0,78.0,30.10,ESE,115,3.0,14.0,70,0.00,,,0.00,,2013-08-11 18:28:00,
2013-08-11 14:39:00,89.0,78.0,30.09,SE,127,2.0,10.0,70,0.00,,,0.00,,2013-08-11 18:39:00,
2013-08-11 14:47:00,89.0,77.0,30.09,NE,44,2.0,9.0,69,0.00,,,0.00,,2013-08-11 18:47:00,
2013-08-11 14:54:00,89.0,77.0,30.09,NE,44,2.0,9.0,69,0.00,,,0.00,,2013-08-11 18:54:00,
2013-08-11 15:09:00,88.0,77.0,30.09,ESE,111,3.0,11.0,69,0.00,,,0.00,,2013-08-11 19:09:00,
2013-08-11 15:16:00,88.0,77.0,30.08,ESE,117,7.0,12.0,71,0.00,,,0.00,,2013-08-11 19:16:00,
2013-08-11 15:26:00,88.0,77.0,30.08,ESE,117,7.0,12.0,71,0.00,,,0.00,,2013-08-11 19:26:00,
2013-08-11 15:49:00,88.0,77.0,30.08,SSE,166,5.0,10.0,70,0.00,,,0.00,,2013-08-11 19:49:00,
2013-08-11 15:56:00,88.0,77.0,30.08,SSE,166,5.0,10.0,70,0.00,,,0.00,,2013-08-11 19:56:00,
2013-08-11 16:07:00,88.0,78.0,30.07,ESE,113,3.0,12.0,72,0.00,,,0.00,,2013-08-11 20:07:00,
2013-08-11 16:28:00,87.0,76.0,30.07,ESE,122,5.0,11.0,71,0.00,,,0.00,,2013-08-11 20:28:00,
2013-08-11 16:38:00,88.0,77.0,30.06,SE,144,4.0,8.0,70,0.00,,,0.00,,2013-08-11 20:38:00,
2013-08-11 16:47:00,87.0,76.0,30.06,SSE,149,2.0,11.0,70,0.00,,,0.00,,2013-08-11 20:47:00,
2013-08-11 16:55:00,87.0,76.0,30.06,SSE,149,2.0,11.0,70,0.00,,,0.00,,2013-08-11 20:55:00,
2013-08-11 17:07:00,87.0,76.0,30.06,SSW,201,2.0,9.0,71,0.00,,,0.00,,2013-08-11 21:07:00,
2013-08-11 17:13:00,87.0,76.0,30.05,ESE,117,1.0,9.0,71,0.00,,,0.00,,2013-08-11 21:13:00,
2013-08-11 17:27:00,87.0,76.0,30.05,ESE,117,1.0,9.0,71,0.00,,,0.00,,2013-08-11 21:27:00,
2013-08-11 17:46:00,87.0,76.0,30.05,NW,325,1.0,8.0,71,0.00,,,0.00,,2013-08-11 21:46:00,
2013-08-11 17:54:00,87.0,76.0,30.05,NW,325,1.0,8.0,71,0.00,,,0.00,,2013-08-11 21:54:00,
2013-08-11 18:04:00,87.0,77.0,30.05,ESE,114,1.0,5.0,72,0.00,,,0.00,,2013-08-11 22:04:00,
2013-08-11 18:25:00,87.0,77.0,30.05,ESE,106,1.0,4.0,72,0.00,,,0.00,,2013-08-11 22:25:00,
2013-08-11 18:46:00,87.0,77.0,30.05,SE,138,0.0,8.0,72,0.00,,,0.00,,2013-08-11 22:46:00,
2013-08-11 18:55:00,87.0,77.0,30.05,SE,138,0.0,8.0,72,0.00,,,0.00,,2013-08-11 22:55:00,
2013-08-11 19:05:00,87.0,77.0,30.04,SE,128,1.0,7.0,72,0.00,,,0.00,,2013-08-11 23:05:00,
2013-08-11 19:28:00,86.0,76.0,30.04,ESE,117,0.0,7.0,73,0.00,,,0.00,,2013-08-11 23:28:00,
2013-08-11 19:35:00,86.0,77.0,30.04,ESE,111,1.0,8.0,74,0.00,,,0.00,,2013-08-11 23:35:00,
2013-08-11 19:56:00,85.0,76.0,30.04,ENE,78,0.0,4.0,75,0.00,,,0.00,,2013-08-11 23:56:00,
2013-08-11 20:06:00,85.0,77.0,30.04,East,84,0.0,5.0,76,0.00,,,0.00,,2013-08-12 00:06:00,
2013-08-11 20:25:00,84.0,76.0,30.04,ENE,72,0.0,8.0,77,0.00,,,0.00,,2013-08-12 00:25:00,
2013-08-11 20:37:00,84.0,76.0,30.05,NNE,22,0.0,6.0,77,0.00,,,0.00,,2013-08-12 00:37:00,
2013-08-11 20:48:00,84.0,76.0,30.05,SSW,203,0.0,3.0,78,0.00,,,0.00,,2013-08-12 00:48:00,
2013-08-11 20:54:00,84.0,76.0,30.05,SSW,203,0.0,3.0,78,0.00,,,0.00,,2013-08-12 00:54:00,
2013-08-11 21:08:00,84.0,76.0,30.06,SE,126,1.0,6.0,78,0.00,,,0.00,,2013-08-12 01:08:00,
2013-08-11 21:14:00,84.0,76.0,30.06,SE,144,0.0,3.0,78,0.00,,,0.00,,2013-08-12 01:14:00,
2013-08-11 21:25:00,84.0,76.0,30.06,SE,144,0.0,3.0,78,0.00,,,0.00,,2013-08-12 01:25:00,
2013-08-11 21:37:00,83.0,75.0,30.06,East,80,0.0,4.0,76,0.00,,,0.00,,2013-08-12 01:37:00,
2013-08-11 21:46:00,83.0,75.0,30.06,ESE,120,0.0,4.0,76,0.00,,,0.00,,2013-08-12 01:46:00,
2013-08-11 21:55:00,83.0,75.0,30.06,ESE,120,0.0,4.0,76,0.00,,,0.00,,2013-08-12 01:55:00,
2013-08-11 22:08:00,83.0,75.0,30.06,NE,42,0.0,2.0,76,0.00,,,0.00,,2013-08-12 02:08:00,
2013-08-11 22:14:00,83.0,75.0,30.07,ESE,123,0.0,4.0,77,0.00,,,0.00,,2013-08-12 02:14:00,
2013-08-11 22:24:00,83.0,75.0,30.07,ESE,123,0.0,4.0,77,0.00,,,0.00,,2013-08-12 02:24:00,
2013-08-11 22:36:00,83.0,75.0,30.07,NNW,340,0.0,4.0,77,0.00,,,0.00,,2013-08-12 02:36:00,
2013-08-11 22:46:00,83.0,75.0,30.08,East,97,0.0,6.0,76,0.00,,,0.00,,2013-08-12 02:46:00,
2013-08-11 23:08:00,83.0,75.0,30.08,ENE,61,0.0,3.0,76,0.00,,,0.00,,2013-08-12 03:08:00,
2013-08-11 23:15:00,83.0,75.0,30.08,East,86,1.0,7.0,76,0.00,,,0.00,,2013-08-12 03:15:00,
2013-08-11 23:25:00,83.0,75.0,30.08,East,86,1.0,7.0,76,0.00,,,0.00,,2013-08-12 03:25:00,
2013-08-11 23:39:00,83.0,75.0,30.08,East,87,0.0,4.0,76,0.00,,,0.00,,2013-08-12 03:39:00,
2013-08-11 23:45:00,83.0,75.0,30.08,ESE,104,0.0,4.0,76,0.00,,,0.00,,2013-08-12 03:45:00,
2013-08-11 23:57:00,83.0,75.0,30.08,ESE,104,0.0,4.0,76,0.00,,,0.00,,2013-08-12 03:57:00,